owner,sensor,date,latitude,longitude,relative_humidity,qcFlag 
COMPS,ioos:station:USF.COMPS:BGC:1,2014-08-01T00:00:00Z,26.4040,-81.8810,45.64,1111122 
COMPS,ioos:station:USF.COMPS:BGC:1,2014-08-01T00:06:00Z,26.4040,-81.8810,45.71,1111122 
COMPS,ioos:station:USF.COMPS:BGC:1,2014-08-01T00:12:00Z,26.4040,-81.8810,45.84,1111122 
COMPS,ioos:station:USF.COMPS:BGC:1,2014-08-01T00:18:00Z,26.4040,-81.8810,46.94,1111122 
COMPS,ioos:station:USF.COMPS:BGC:1,2014-08-01T00:24:00Z,26.4040,-81.8810,47.2,1111122 
COMPS,ioos:station:USF.COMPS:BGC:1,2014-08-01T00:30:00Z,26.4040,-81.8810,48.39,1111122 
COMPS,ioos:station:USF.COMPS:BGC:1,2014-08-01T00:36:00Z,26.4040,-81.8810,47.38,1111122 
COMPS,ioos:station:USF.COMPS:BGC:1,2014-08-01T00:42:00Z,26.4040,-81.8810,47.88,1111122 
COMPS,ioos:station:USF.COMPS:BGC:1,2014-08-01T00:48:00Z,26.4040,-81.8810,48.83,1111122 
COMPS,ioos:station:USF.COMPS:BGC:1,2014-08-01T00:54:00Z,26.4040,-81.8810,48.25,1111122 
COMPS,ioos:station:USF.COMPS:BGC:1,2014-08-01T01:00:00Z,26.4040,-81.8810,49.42,1111122 
COMPS,ioos:station:USF.COMPS:BGC:1,2014-08-01T01:06:00Z,26.4040,-81.8810,50.02,1111122 
COMPS,ioos:station:USF.COMPS:BGC:1,2014-08-01T01:12:00Z,26.4040,-81.8810,50.3,1111122 
COMPS,ioos:station:USF.COMPS:BGC:1,2014-08-01T01:18:00Z,26.4040,-81.8810,50.39,1111122 
COMPS,ioos:station:USF.COMPS:BGC:1,2014-08-01T01:24:00Z,26.4040,-81.8810,50.02,1111122 
COMPS,ioos:station:USF.COMPS:BGC:1,2014-08-01T01:30:00Z,26.4040,-81.8810,50.1,1111122 
COMPS,ioos:station:USF.COMPS:BGC:1,2014-08-01T01:36:00Z,26.4040,-81.8810,50.67,1111122 
COMPS,ioos:station:USF.COMPS:BGC:1,2014-08-01T01:42:00Z,26.4040,-81.8810,54.73,1111122 
COMPS,ioos:station:USF.COMPS:BGC:1,2014-08-01T01:48:00Z,26.4040,-81.8810,70.0,1111122 
COMPS,ioos:station:USF.COMPS:BGC:1,2014-08-01T01:54:00Z,26.4040,-81.8810,74.14,1111122 
COMPS,ioos:station:USF.COMPS:BGC:1,2014-08-01T02:00:00Z,26.4040,-81.8810,75.7,1111122 
COMPS,ioos:station:USF.COMPS:BGC:1,2014-08-01T02:06:00Z,26.4040,-81.8810,76.13,1111122 
COMPS,ioos:station:USF.COMPS:BGC:1,2014-08-01T02:12:00Z,26.4040,-81.8810,76.47,1111122 
COMPS,ioos:station:USF.COMPS:BGC:1,2014-08-01T02:18:00Z,26.4040,-81.8810,76.57,1111122 
COMPS,ioos:station:USF.COMPS:BGC:1,2014-08-01T02:24:00Z,26.4040,-81.8810,76.68,1111122 
COMPS,ioos:station:USF.COMPS:BGC:1,2014-08-01T02:30:00Z,26.4040,-81.8810,76.5,1111122 
COMPS,ioos:station:USF.COMPS:BGC:1,2014-08-01T02:36:00Z,26.4040,-81.8810,76.67,1111122 
COMPS,ioos:station:USF.COMPS:BGC:1,2014-08-01T02:42:00Z,26.4040,-81.8810,76.6,1111122 
COMPS,ioos:station:USF.COMPS:BGC:1,2014-08-01T02:48:00Z,26.4040,-81.8810,76.38,1111122 
COMPS,ioos:station:USF.COMPS:BGC:1,2014-08-01T02:54:00Z,26.4040,-81.8810,76.61,1111122 
COMPS,ioos:station:USF.COMPS:BGC:1,2014-08-01T03:00:00Z,26.4040,-81.8810,76.6,1111122 
COMPS,ioos:station:USF.COMPS:BGC:1,2014-08-01T03:06:00Z,26.4040,-81.8810,76.66,1111122 
COMPS,ioos:station:USF.COMPS:BGC:1,2014-08-01T03:12:00Z,26.4040,-81.8810,76.78,1111122 
COMPS,ioos:station:USF.COMPS:BGC:1,2014-08-01T03:18:00Z,26.4040,-81.8810,76.18,1111122 
COMPS,ioos:station:USF.COMPS:BGC:1,2014-08-01T03:24:00Z,26.4040,-81.8810,75.69,1111122 
COMPS,ioos:station:USF.COMPS:BGC:1,2014-08-01T03:30:00Z,26.4040,-81.8810,75.55,1111122 
COMPS,ioos:station:USF.COMPS:BGC:1,2014-08-01T03:36:00Z,26.4040,-81.8810,75.18,1111122 
COMPS,ioos:station:USF.COMPS:BGC:1,2014-08-01T03:42:00Z,26.4040,-81.8810,74.81,1111122 
COMPS,ioos:station:USF.COMPS:BGC:1,2014-08-01T03:48:00Z,26.4040,-81.8810,74.48,1111122 
COMPS,ioos:station:USF.COMPS:BGC:1,2014-08-01T03:54:00Z,26.4040,-81.8810,75.12,1111122 
COMPS,ioos:station:USF.COMPS:BGC:1,2014-08-01T04:00:00Z,26.4040,-81.8810,75.64,1111122 
COMPS,ioos:station:USF.COMPS:BGC:1,2014-08-01T04:06:00Z,26.4040,-81.8810,75.68,1111122 
COMPS,ioos:station:USF.COMPS:BGC:1,2014-08-01T04:12:00Z,26.4040,-81.8810,75.43,1111122 
COMPS,ioos:station:USF.COMPS:BGC:1,2014-08-01T04:18:00Z,26.4040,-81.8810,76.04,1111122 
COMPS,ioos:station:USF.COMPS:BGC:1,2014-08-01T04:24:00Z,26.4040,-81.8810,76.6,1111122 
COMPS,ioos:station:USF.COMPS:BGC:1,2014-08-01T04:30:00Z,26.4040,-81.8810,76.49,1111122 
COMPS,ioos:station:USF.COMPS:BGC:1,2014-08-01T04:36:00Z,26.4040,-81.8810,76.66,1111122 
COMPS,ioos:station:USF.COMPS:BGC:1,2014-08-01T04:42:00Z,26.4040,-81.8810,76.92,1111122 
COMPS,ioos:station:USF.COMPS:BGC:1,2014-08-01T04:48:00Z,26.4040,-81.8810,77.24,1111122 
COMPS,ioos:station:USF.COMPS:BGC:1,2014-08-01T04:54:00Z,26.4040,-81.8810,77.68,1111122 
COMPS,ioos:station:USF.COMPS:BGC:1,2014-08-01T05:00:00Z,26.4040,-81.8810,77.98,1111122 
COMPS,ioos:station:USF.COMPS:BGC:1,2014-08-01T05:06:00Z,26.4040,-81.8810,78.07,1111122 
COMPS,ioos:station:USF.COMPS:BGC:1,2014-08-01T05:12:00Z,26.4040,-81.8810,78.11,1111122 
COMPS,ioos:station:USF.COMPS:BGC:1,2014-08-01T05:18:00Z,26.4040,-81.8810,77.93,1111122 
COMPS,ioos:station:USF.COMPS:BGC:1,2014-08-01T05:24:00Z,26.4040,-81.8810,77.94,1111122 
COMPS,ioos:station:USF.COMPS:BGC:1,2014-08-01T05:30:00Z,26.4040,-81.8810,77.85,1111122 
COMPS,ioos:station:USF.COMPS:BGC:1,2014-08-01T05:36:00Z,26.4040,-81.8810,78.11,1111122 
COMPS,ioos:station:USF.COMPS:BGC:1,2014-08-01T05:42:00Z,26.4040,-81.8810,77.94,1111122 
COMPS,ioos:station:USF.COMPS:BGC:1,2014-08-01T05:48:00Z,26.4040,-81.8810,77.99,1111122 
COMPS,ioos:station:USF.COMPS:BGC:1,2014-08-01T05:54:00Z,26.4040,-81.8810,78.14,1111122 
COMPS,ioos:station:USF.COMPS:BGC:1,2014-08-01T06:00:00Z,26.4040,-81.8810,78.37,1111122 
COMPS,ioos:station:USF.COMPS:BGC:1,2014-08-01T06:06:00Z,26.4040,-81.8810,78.62,1111122 
COMPS,ioos:station:USF.COMPS:BGC:1,2014-08-01T06:12:00Z,26.4040,-81.8810,78.33,1111122 
COMPS,ioos:station:USF.COMPS:BGC:1,2014-08-01T06:18:00Z,26.4040,-81.8810,78.28,1111122 
COMPS,ioos:station:USF.COMPS:BGC:1,2014-08-01T06:24:00Z,26.4040,-81.8810,78.15,1111122 
COMPS,ioos:station:USF.COMPS:BGC:1,2014-08-01T06:30:00Z,26.4040,-81.8810,77.61,1111122 
COMPS,ioos:station:USF.COMPS:BGC:1,2014-08-01T06:36:00Z,26.4040,-81.8810,77.37,1111122 
COMPS,ioos:station:USF.COMPS:BGC:1,2014-08-01T06:42:00Z,26.4040,-81.8810,77.33,1111122 
COMPS,ioos:station:USF.COMPS:BGC:1,2014-08-01T06:48:00Z,26.4040,-81.8810,77.23,1111122 
COMPS,ioos:station:USF.COMPS:BGC:1,2014-08-01T06:54:00Z,26.4040,-81.8810,77.19,1111122 
COMPS,ioos:station:USF.COMPS:BGC:1,2014-08-01T07:00:00Z,26.4040,-81.8810,76.89,1111122 
COMPS,ioos:station:USF.COMPS:BGC:1,2014-08-01T07:06:00Z,26.4040,-81.8810,76.75,1111122 
COMPS,ioos:station:USF.COMPS:BGC:1,2014-08-01T07:12:00Z,26.4040,-81.8810,76.8,1111122 
COMPS,ioos:station:USF.COMPS:BGC:1,2014-08-01T07:18:00Z,26.4040,-81.8810,77.13,1111122 
COMPS,ioos:station:USF.COMPS:BGC:1,2014-08-01T07:24:00Z,26.4040,-81.8810,77.06,1111122 
COMPS,ioos:station:USF.COMPS:BGC:1,2014-08-01T07:30:00Z,26.4040,-81.8810,76.76,1111122 
COMPS,ioos:station:USF.COMPS:BGC:1,2014-08-01T07:36:00Z,26.4040,-81.8810,75.49,1111122 
COMPS,ioos:station:USF.COMPS:BGC:1,2014-08-01T07:42:00Z,26.4040,-81.8810,74.53,1111122 
COMPS,ioos:station:USF.COMPS:BGC:1,2014-08-01T07:48:00Z,26.4040,-81.8810,73.75,1111122 
COMPS,ioos:station:USF.COMPS:BGC:1,2014-08-01T07:54:00Z,26.4040,-81.8810,73.36,1111122 
COMPS,ioos:station:USF.COMPS:BGC:1,2014-08-01T08:00:00Z,26.4040,-81.8810,73.37,1111122 
COMPS,ioos:station:USF.COMPS:BGC:1,2014-08-01T08:06:00Z,26.4040,-81.8810,73.28,1111122 
COMPS,ioos:station:USF.COMPS:BGC:1,2014-08-01T08:12:00Z,26.4040,-81.8810,72.96,1111122 
COMPS,ioos:station:USF.COMPS:BGC:1,2014-08-01T08:18:00Z,26.4040,-81.8810,73.32,1111122 
COMPS,ioos:station:USF.COMPS:BGC:1,2014-08-01T08:24:00Z,26.4040,-81.8810,73.63,1111122 
COMPS,ioos:station:USF.COMPS:BGC:1,2014-08-01T08:30:00Z,26.4040,-81.8810,73.81,1111122 
COMPS,ioos:station:USF.COMPS:BGC:1,2014-08-01T08:36:00Z,26.4040,-81.8810,73.54,1111122 
COMPS,ioos:station:USF.COMPS:BGC:1,2014-08-01T08:42:00Z,26.4040,-81.8810,73.09,1111122 
COMPS,ioos:station:USF.COMPS:BGC:1,2014-08-01T08:48:00Z,26.4040,-81.8810,73.02,1111122 
COMPS,ioos:station:USF.COMPS:BGC:1,2014-08-01T08:54:00Z,26.4040,-81.8810,72.88,1111122 
COMPS,ioos:station:USF.COMPS:BGC:1,2014-08-01T09:00:00Z,26.4040,-81.8810,73.1,1111122 
COMPS,ioos:station:USF.COMPS:BGC:1,2014-08-01T09:06:00Z,26.4040,-81.8810,73.26,1111122 
COMPS,ioos:station:USF.COMPS:BGC:1,2014-08-01T09:12:00Z,26.4040,-81.8810,73.65,1111122 
COMPS,ioos:station:USF.COMPS:BGC:1,2014-08-01T09:18:00Z,26.4040,-81.8810,73.48,1111122 
COMPS,ioos:station:USF.COMPS:BGC:1,2014-08-01T09:24:00Z,26.4040,-81.8810,73.57,1111122 
COMPS,ioos:station:USF.COMPS:BGC:1,2014-08-01T09:30:00Z,26.4040,-81.8810,73.99,1111122 
COMPS,ioos:station:USF.COMPS:BGC:1,2014-08-01T09:36:00Z,26.4040,-81.8810,74.16,1111122 
COMPS,ioos:station:USF.COMPS:BGC:1,2014-08-01T09:42:00Z,26.4040,-81.8810,74.48,1111122 
COMPS,ioos:station:USF.COMPS:BGC:1,2014-08-01T09:48:00Z,26.4040,-81.8810,74.57,1111122 
COMPS,ioos:station:USF.COMPS:BGC:1,2014-08-01T09:54:00Z,26.4040,-81.8810,74.53,1111122 
COMPS,ioos:station:USF.COMPS:BGC:1,2014-08-01T10:00:00Z,26.4040,-81.8810,74.58,1111122 
COMPS,ioos:station:USF.COMPS:BGC:1,2014-08-01T10:06:00Z,26.4040,-81.8810,74.7,1111122 
COMPS,ioos:station:USF.COMPS:BGC:1,2014-08-01T10:12:00Z,26.4040,-81.8810,74.7,1111122 
COMPS,ioos:station:USF.COMPS:BGC:1,2014-08-01T10:18:00Z,26.4040,-81.8810,74.6,1111122 
COMPS,ioos:station:USF.COMPS:BGC:1,2014-08-01T10:24:00Z,26.4040,-81.8810,74.07,1111122 
COMPS,ioos:station:USF.COMPS:BGC:1,2014-08-01T10:30:00Z,26.4040,-81.8810,73.19,1111122 
COMPS,ioos:station:USF.COMPS:BGC:1,2014-08-01T10:36:00Z,26.4040,-81.8810,73.29,1111122 
COMPS,ioos:station:USF.COMPS:BGC:1,2014-08-01T10:42:00Z,26.4040,-81.8810,73.24,1111122 
COMPS,ioos:station:USF.COMPS:BGC:1,2014-08-01T10:48:00Z,26.4040,-81.8810,72.95,1111122 
COMPS,ioos:station:USF.COMPS:BGC:1,2014-08-01T10:54:00Z,26.4040,-81.8810,73.3,1111122 
COMPS,ioos:station:USF.COMPS:BGC:1,2014-08-01T11:00:00Z,26.4040,-81.8810,73.56,1111122 
COMPS,ioos:station:USF.COMPS:BGC:1,2014-08-01T11:06:00Z,26.4040,-81.8810,73.85,1111122 
COMPS,ioos:station:USF.COMPS:BGC:1,2014-08-01T11:12:00Z,26.4040,-81.8810,73.65,1111122 
COMPS,ioos:station:USF.COMPS:BGC:1,2014-08-01T11:18:00Z,26.4040,-81.8810,73.54,1111122 
COMPS,ioos:station:USF.COMPS:BGC:1,2014-08-01T11:24:00Z,26.4040,-81.8810,72.46,1111122 
COMPS,ioos:station:USF.COMPS:BGC:1,2014-08-01T11:30:00Z,26.4040,-81.8810,70.94,1111122 
COMPS,ioos:station:USF.COMPS:BGC:1,2014-08-01T11:36:00Z,26.4040,-81.8810,70.27,1111122 
COMPS,ioos:station:USF.COMPS:BGC:1,2014-08-01T11:42:00Z,26.4040,-81.8810,69.56,1111122 
COMPS,ioos:station:USF.COMPS:BGC:1,2014-08-01T11:48:00Z,26.4040,-81.8810,69.12,1111122 
COMPS,ioos:station:USF.COMPS:BGC:1,2014-08-01T11:54:00Z,26.4040,-81.8810,69.1,1111122 
COMPS,ioos:station:USF.COMPS:BGC:1,2014-08-01T12:00:00Z,26.4040,-81.8810,68.45,1111122 
COMPS,ioos:station:USF.COMPS:BGC:1,2014-08-01T12:06:00Z,26.4040,-81.8810,67.96,1111122 
COMPS,ioos:station:USF.COMPS:BGC:1,2014-08-01T12:12:00Z,26.4040,-81.8810,66.24,1111122 
COMPS,ioos:station:USF.COMPS:BGC:1,2014-08-01T12:18:00Z,26.4040,-81.8810,65.14,1111122 
COMPS,ioos:station:USF.COMPS:BGC:1,2014-08-01T12:24:00Z,26.4040,-81.8810,64.0,1111122 
COMPS,ioos:station:USF.COMPS:BGC:1,2014-08-01T12:30:00Z,26.4040,-81.8810,66.08,1111122 
COMPS,ioos:station:USF.COMPS:BGC:1,2014-08-01T12:36:00Z,26.4040,-81.8810,67.49,1111122 
COMPS,ioos:station:USF.COMPS:BGC:1,2014-08-01T12:42:00Z,26.4040,-81.8810,65.83,1111122 
COMPS,ioos:station:USF.COMPS:BGC:1,2014-08-01T12:48:00Z,26.4040,-81.8810,64.36,1111122 
COMPS,ioos:station:USF.COMPS:BGC:1,2014-08-01T12:54:00Z,26.4040,-81.8810,66.11,1111122 
COMPS,ioos:station:USF.COMPS:BGC:1,2014-08-01T13:00:00Z,26.4040,-81.8810,66.42,1111122 
COMPS,ioos:station:USF.COMPS:BGC:1,2014-08-01T13:06:00Z,26.4040,-81.8810,65.41,1111122 
COMPS,ioos:station:USF.COMPS:BGC:1,2014-08-01T13:12:00Z,26.4040,-81.8810,64.67,1111122 
COMPS,ioos:station:USF.COMPS:BGC:1,2014-08-01T13:18:00Z,26.4040,-81.8810,63.3,1111122 
COMPS,ioos:station:USF.COMPS:BGC:1,2014-08-01T13:24:00Z,26.4040,-81.8810,61.35,1111122 
COMPS,ioos:station:USF.COMPS:BGC:1,2014-08-01T13:30:00Z,26.4040,-81.8810,61.03,1111122 
COMPS,ioos:station:USF.COMPS:BGC:1,2014-08-01T13:36:00Z,26.4040,-81.8810,61.19,1111122 
COMPS,ioos:station:USF.COMPS:BGC:1,2014-08-01T13:42:00Z,26.4040,-81.8810,59.61,1111122 
COMPS,ioos:station:USF.COMPS:BGC:1,2014-08-01T13:48:00Z,26.4040,-81.8810,60.25,1111122 
COMPS,ioos:station:USF.COMPS:BGC:1,2014-08-01T13:54:00Z,26.4040,-81.8810,65.85,1111122 
COMPS,ioos:station:USF.COMPS:BGC:1,2014-08-01T14:00:00Z,26.4040,-81.8810,67.58,1111122 
COMPS,ioos:station:USF.COMPS:BGC:1,2014-08-01T14:06:00Z,26.4040,-81.8810,70.52,1111122 
COMPS,ioos:station:USF.COMPS:BGC:1,2014-08-01T14:12:00Z,26.4040,-81.8810,72.42,1111122 
COMPS,ioos:station:USF.COMPS:BGC:1,2014-08-01T14:18:00Z,26.4040,-81.8810,74.23,1111122 
COMPS,ioos:station:USF.COMPS:BGC:1,2014-08-01T14:24:00Z,26.4040,-81.8810,73.6,1111122 
COMPS,ioos:station:USF.COMPS:BGC:1,2014-08-01T14:30:00Z,26.4040,-81.8810,72.64,1111122 
COMPS,ioos:station:USF.COMPS:BGC:1,2014-08-01T14:36:00Z,26.4040,-81.8810,74.83,1111122 
COMPS,ioos:station:USF.COMPS:BGC:1,2014-08-01T14:42:00Z,26.4040,-81.8810,74.42,1111122 
COMPS,ioos:station:USF.COMPS:BGC:1,2014-08-01T14:48:00Z,26.4040,-81.8810,69.57,1111122 
COMPS,ioos:station:USF.COMPS:BGC:1,2014-08-01T14:54:00Z,26.4040,-81.8810,69.3,1111122 
COMPS,ioos:station:USF.COMPS:BGC:1,2014-08-01T15:00:00Z,26.4040,-81.8810,68.09,1111122 
COMPS,ioos:station:USF.COMPS:BGC:1,2014-08-01T15:06:00Z,26.4040,-81.8810,66.21,1111122 
COMPS,ioos:station:USF.COMPS:BGC:1,2014-08-01T15:12:00Z,26.4040,-81.8810,66.59,1111122 
COMPS,ioos:station:USF.COMPS:BGC:1,2014-08-01T15:18:00Z,26.4040,-81.8810,63.53,1111122 
COMPS,ioos:station:USF.COMPS:BGC:1,2014-08-01T15:24:00Z,26.4040,-81.8810,56.63,1111122 
COMPS,ioos:station:USF.COMPS:BGC:1,2014-08-01T15:30:00Z,26.4040,-81.8810,58.25,1111122 
COMPS,ioos:station:USF.COMPS:BGC:1,2014-08-01T15:36:00Z,26.4040,-81.8810,59.77,1111122 
COMPS,ioos:station:USF.COMPS:BGC:1,2014-08-01T15:42:00Z,26.4040,-81.8810,60.05,1111122 
COMPS,ioos:station:USF.COMPS:BGC:1,2014-08-01T15:48:00Z,26.4040,-81.8810,58.2,1111122 
COMPS,ioos:station:USF.COMPS:BGC:1,2014-08-01T15:54:00Z,26.4040,-81.8810,54.93,1111122 
COMPS,ioos:station:USF.COMPS:BGC:1,2014-08-01T16:00:00Z,26.4040,-81.8810,54.38,1111122 
COMPS,ioos:station:USF.COMPS:BGC:1,2014-08-01T16:06:00Z,26.4040,-81.8810,57.12,1111122 
COMPS,ioos:station:USF.COMPS:BGC:1,2014-08-01T16:12:00Z,26.4040,-81.8810,58.2,1111122 
COMPS,ioos:station:USF.COMPS:BGC:1,2014-08-01T16:18:00Z,26.4040,-81.8810,57.91,1111122 
COMPS,ioos:station:USF.COMPS:BGC:1,2014-08-01T16:24:00Z,26.4040,-81.8810,57.76,1111122 
COMPS,ioos:station:USF.COMPS:BGC:1,2014-08-01T16:30:00Z,26.4040,-81.8810,57.35,1111122 
COMPS,ioos:station:USF.COMPS:BGC:1,2014-08-01T16:36:00Z,26.4040,-81.8810,55.91,1111122 
COMPS,ioos:station:USF.COMPS:BGC:1,2014-08-01T16:42:00Z,26.4040,-81.8810,55.95,1111122 
COMPS,ioos:station:USF.COMPS:BGC:1,2014-08-01T16:48:00Z,26.4040,-81.8810,55.74,1111122 
COMPS,ioos:station:USF.COMPS:BGC:1,2014-08-01T16:54:00Z,26.4040,-81.8810,54.42,1111122 
COMPS,ioos:station:USF.COMPS:BGC:1,2014-08-01T17:00:00Z,26.4040,-81.8810,54.2,1111122 
COMPS,ioos:station:USF.COMPS:BGC:1,2014-08-01T17:06:00Z,26.4040,-81.8810,55.46,1111122 
COMPS,ioos:station:USF.COMPS:BGC:1,2014-08-01T17:12:00Z,26.4040,-81.8810,54.81,1111122 
COMPS,ioos:station:USF.COMPS:BGC:1,2014-08-01T17:18:00Z,26.4040,-81.8810,55.5,1111122 
COMPS,ioos:station:USF.COMPS:BGC:1,2014-08-01T17:24:00Z,26.4040,-81.8810,55.96,1111122 
COMPS,ioos:station:USF.COMPS:BGC:1,2014-08-01T17:30:00Z,26.4040,-81.8810,56.42,1111122 
COMPS,ioos:station:USF.COMPS:BGC:1,2014-08-01T17:36:00Z,26.4040,-81.8810,55.99,1111122 
COMPS,ioos:station:USF.COMPS:BGC:1,2014-08-01T17:42:00Z,26.4040,-81.8810,55.43,1111122 
COMPS,ioos:station:USF.COMPS:BGC:1,2014-08-01T17:48:00Z,26.4040,-81.8810,56.03,1111122 
COMPS,ioos:station:USF.COMPS:BGC:1,2014-08-01T17:54:00Z,26.4040,-81.8810,56.25,1111122 
COMPS,ioos:station:USF.COMPS:BGC:1,2014-08-01T18:00:00Z,26.4040,-81.8810,56.49,1111122 
COMPS,ioos:station:USF.COMPS:BGC:1,2014-08-01T18:06:00Z,26.4040,-81.8810,56.52,1111122 
COMPS,ioos:station:USF.COMPS:BGC:1,2014-08-01T18:12:00Z,26.4040,-81.8810,56.69,1111122 
COMPS,ioos:station:USF.COMPS:BGC:1,2014-08-01T18:18:00Z,26.4040,-81.8810,57.37,1111122 
COMPS,ioos:station:USF.COMPS:BGC:1,2014-08-01T18:24:00Z,26.4040,-81.8810,56.94,1111122 
COMPS,ioos:station:USF.COMPS:BGC:1,2014-08-01T18:30:00Z,26.4040,-81.8810,54.76,1111122 
COMPS,ioos:station:USF.COMPS:BGC:1,2014-08-01T18:36:00Z,26.4040,-81.8810,55.0,1111122 
COMPS,ioos:station:USF.COMPS:BGC:1,2014-08-01T18:42:00Z,26.4040,-81.8810,56.24,1111122 
COMPS,ioos:station:USF.COMPS:BGC:1,2014-08-01T18:48:00Z,26.4040,-81.8810,56.11,1111122 
COMPS,ioos:station:USF.COMPS:BGC:1,2014-08-01T18:54:00Z,26.4040,-81.8810,55.6,1111122 
COMPS,ioos:station:USF.COMPS:BGC:1,2014-08-01T19:00:00Z,26.4040,-81.8810,56.52,1111122 
COMPS,ioos:station:USF.COMPS:BGC:1,2014-08-01T19:06:00Z,26.4040,-81.8810,54.46,1111122 
COMPS,ioos:station:USF.COMPS:BGC:1,2014-08-01T19:12:00Z,26.4040,-81.8810,54.36,1111122 
COMPS,ioos:station:USF.COMPS:BGC:1,2014-08-01T19:18:00Z,26.4040,-81.8810,53.32,1111122 
COMPS,ioos:station:USF.COMPS:BGC:1,2014-08-01T19:24:00Z,26.4040,-81.8810,53.17,1111122 
COMPS,ioos:station:USF.COMPS:BGC:1,2014-08-01T19:30:00Z,26.4040,-81.8810,51.93,1111122 
COMPS,ioos:station:USF.COMPS:BGC:1,2014-08-01T19:36:00Z,26.4040,-81.8810,51.79,1111122 
COMPS,ioos:station:USF.COMPS:BGC:1,2014-08-01T19:42:00Z,26.4040,-81.8810,53.58,1111122 
COMPS,ioos:station:USF.COMPS:BGC:1,2014-08-01T19:48:00Z,26.4040,-81.8810,54.44,1111122 
COMPS,ioos:station:USF.COMPS:BGC:1,2014-08-01T19:54:00Z,26.4040,-81.8810,54.91,1111122 
COMPS,ioos:station:USF.COMPS:BGC:1,2014-08-01T20:00:00Z,26.4040,-81.8810,55.19,1111122 
COMPS,ioos:station:USF.COMPS:BGC:1,2014-08-01T20:06:00Z,26.4040,-81.8810,53.29,1111122 
COMPS,ioos:station:USF.COMPS:BGC:1,2014-08-01T20:12:00Z,26.4040,-81.8810,53.21,1111122 
COMPS,ioos:station:USF.COMPS:BGC:1,2014-08-01T20:18:00Z,26.4040,-81.8810,52.81,1111122 
COMPS,ioos:station:USF.COMPS:BGC:1,2014-08-01T20:24:00Z,26.4040,-81.8810,52.34,1111122 
COMPS,ioos:station:USF.COMPS:BGC:1,2014-08-01T20:30:00Z,26.4040,-81.8810,52.38,1111122 
COMPS,ioos:station:USF.COMPS:BGC:1,2014-08-01T20:36:00Z,26.4040,-81.8810,52.96,1111122 
COMPS,ioos:station:USF.COMPS:BGC:1,2014-08-01T20:42:00Z,26.4040,-81.8810,52.24,1111122 
COMPS,ioos:station:USF.COMPS:BGC:1,2014-08-01T20:48:00Z,26.4040,-81.8810,53.06,1111122 
COMPS,ioos:station:USF.COMPS:BGC:1,2014-08-01T20:54:00Z,26.4040,-81.8810,52.71,1111122 
COMPS,ioos:station:USF.COMPS:BGC:1,2014-08-01T21:00:00Z,26.4040,-81.8810,51.93,1111122 
COMPS,ioos:station:USF.COMPS:BGC:1,2014-08-01T21:06:00Z,26.4040,-81.8810,51.24,1111122 
COMPS,ioos:station:USF.COMPS:BGC:1,2014-08-01T21:12:00Z,26.4040,-81.8810,49.86,1111122 
COMPS,ioos:station:USF.COMPS:BGC:1,2014-08-01T21:18:00Z,26.4040,-81.8810,50.6,1111122 
COMPS,ioos:station:USF.COMPS:BGC:1,2014-08-01T21:24:00Z,26.4040,-81.8810,50.33,1111122 
COMPS,ioos:station:USF.COMPS:BGC:1,2014-08-01T21:30:00Z,26.4040,-81.8810,49.03,1111122 
COMPS,ioos:station:USF.COMPS:BGC:1,2014-08-01T21:36:00Z,26.4040,-81.8810,48.71,1111122 
COMPS,ioos:station:USF.COMPS:BGC:1,2014-08-01T21:42:00Z,26.4040,-81.8810,48.75,1111122 
COMPS,ioos:station:USF.COMPS:BGC:1,2014-08-01T21:48:00Z,26.4040,-81.8810,49.78,1111122 
COMPS,ioos:station:USF.COMPS:BGC:1,2014-08-01T21:54:00Z,26.4040,-81.8810,50.66,1111122 
COMPS,ioos:station:USF.COMPS:BGC:1,2014-08-01T22:00:00Z,26.4040,-81.8810,49.95,1111122 
COMPS,ioos:station:USF.COMPS:BGC:1,2014-08-01T22:06:00Z,26.4040,-81.8810,51.61,1111122 
COMPS,ioos:station:USF.COMPS:BGC:1,2014-08-01T22:12:00Z,26.4040,-81.8810,55.5,1111122 
COMPS,ioos:station:USF.COMPS:BGC:1,2014-08-01T22:18:00Z,26.4040,-81.8810,56.33,1111122 
COMPS,ioos:station:USF.COMPS:BGC:1,2014-08-01T22:24:00Z,26.4040,-81.8810,55.79,1111122 
COMPS,ioos:station:USF.COMPS:BGC:1,2014-08-01T22:30:00Z,26.4040,-81.8810,56.09,1111122 
COMPS,ioos:station:USF.COMPS:BGC:1,2014-08-01T22:36:00Z,26.4040,-81.8810,54.32,1111122 
COMPS,ioos:station:USF.COMPS:BGC:1,2014-08-01T22:42:00Z,26.4040,-81.8810,52.15,1111122 
COMPS,ioos:station:USF.COMPS:BGC:1,2014-08-01T22:48:00Z,26.4040,-81.8810,50.44,1111122 
COMPS,ioos:station:USF.COMPS:BGC:1,2014-08-01T22:54:00Z,26.4040,-81.8810,51.79,1111122 
COMPS,ioos:station:USF.COMPS:BGC:1,2014-08-01T23:00:00Z,26.4040,-81.8810,51.63,1111122 
COMPS,ioos:station:USF.COMPS:BGC:1,2014-08-01T23:06:00Z,26.4040,-81.8810,52.2,1111122 
COMPS,ioos:station:USF.COMPS:BGC:1,2014-08-01T23:12:00Z,26.4040,-81.8810,50.35,1111122 
COMPS,ioos:station:USF.COMPS:BGC:1,2014-08-01T23:18:00Z,26.4040,-81.8810,50.92,1111122 
COMPS,ioos:station:USF.COMPS:BGC:1,2014-08-01T23:24:00Z,26.4040,-81.8810,51.68,1111122 
COMPS,ioos:station:USF.COMPS:BGC:1,2014-08-01T23:30:00Z,26.4040,-81.8810,52.61,1111122 
COMPS,ioos:station:USF.COMPS:BGC:1,2014-08-01T23:36:00Z,26.4040,-81.8810,54.66,1111122 
COMPS,ioos:station:USF.COMPS:BGC:1,2014-08-01T23:42:00Z,26.4040,-81.8810,57.97,1111122 
COMPS,ioos:station:USF.COMPS:BGC:1,2014-08-01T23:48:00Z,26.4040,-81.8810,57.72,1111122 
COMPS,ioos:station:USF.COMPS:BGC:1,2014-08-01T23:54:00Z,26.4040,-81.8810,58.59,1111122 
COMPS,ioos:station:USF.COMPS:BGC:1,2014-08-02T00:00:00Z,26.4040,-81.8810,58.27,1111122 
COMPS,ioos:station:USF.COMPS:BGC:1,2014-08-02T00:06:00Z,26.4040,-81.8810,59.44,1111122 
COMPS,ioos:station:USF.COMPS:BGC:1,2014-08-02T00:12:00Z,26.4040,-81.8810,58.34,1111122 
COMPS,ioos:station:USF.COMPS:BGC:1,2014-08-02T00:18:00Z,26.4040,-81.8810,57.79,1111122 
COMPS,ioos:station:USF.COMPS:BGC:1,2014-08-02T00:24:00Z,26.4040,-81.8810,59.81,1111122 
COMPS,ioos:station:USF.COMPS:BGC:1,2014-08-02T00:30:00Z,26.4040,-81.8810,64.71,1111122 
COMPS,ioos:station:USF.COMPS:BGC:1,2014-08-02T00:36:00Z,26.4040,-81.8810,67.17,1111122 
COMPS,ioos:station:USF.COMPS:BGC:1,2014-08-02T00:42:00Z,26.4040,-81.8810,69.82,1111122 
COMPS,ioos:station:USF.COMPS:BGC:1,2014-08-02T00:48:00Z,26.4040,-81.8810,72.47,1111122 
COMPS,ioos:station:USF.COMPS:BGC:1,2014-08-02T00:54:00Z,26.4040,-81.8810,76.68,1111122 
COMPS,ioos:station:USF.COMPS:BGC:1,2014-08-02T01:00:00Z,26.4040,-81.8810,80.67,1111122 
COMPS,ioos:station:USF.COMPS:BGC:1,2014-08-02T01:06:00Z,26.4040,-81.8810,89.07,1111122 
COMPS,ioos:station:USF.COMPS:BGC:1,2014-08-02T01:12:00Z,26.4040,-81.8810,92.73,1111122 
COMPS,ioos:station:USF.COMPS:BGC:1,2014-08-02T01:18:00Z,26.4040,-81.8810,93.02,1111122 
COMPS,ioos:station:USF.COMPS:BGC:1,2014-08-02T01:24:00Z,26.4040,-81.8810,93.97,1111122 
COMPS,ioos:station:USF.COMPS:BGC:1,2014-08-02T01:30:00Z,26.4040,-81.8810,94.93,1111122 
COMPS,ioos:station:USF.COMPS:BGC:1,2014-08-02T01:36:00Z,26.4040,-81.8810,95.03,1111122 
COMPS,ioos:station:USF.COMPS:BGC:1,2014-08-02T01:42:00Z,26.4040,-81.8810,94.87,1111122 
COMPS,ioos:station:USF.COMPS:BGC:1,2014-08-02T01:48:00Z,26.4040,-81.8810,95.03,1111122 
COMPS,ioos:station:USF.COMPS:BGC:1,2014-08-02T01:54:00Z,26.4040,-81.8810,95.12,1111122 
COMPS,ioos:station:USF.COMPS:BGC:1,2014-08-02T02:00:00Z,26.4040,-81.8810,95.28,1111122 
COMPS,ioos:station:USF.COMPS:BGC:1,2014-08-02T02:06:00Z,26.4040,-81.8810,95.33,1111122 
COMPS,ioos:station:USF.COMPS:BGC:1,2014-08-02T02:12:00Z,26.4040,-81.8810,95.39,1111122 
COMPS,ioos:station:USF.COMPS:BGC:1,2014-08-02T02:18:00Z,26.4040,-81.8810,95.51,1111122 
COMPS,ioos:station:USF.COMPS:BGC:1,2014-08-02T02:24:00Z,26.4040,-81.8810,95.47,1111122 
COMPS,ioos:station:USF.COMPS:BGC:1,2014-08-02T02:30:00Z,26.4040,-81.8810,95.45,1111122 
COMPS,ioos:station:USF.COMPS:BGC:1,2014-08-02T02:36:00Z,26.4040,-81.8810,95.07,1111122 
COMPS,ioos:station:USF.COMPS:BGC:1,2014-08-02T02:42:00Z,26.4040,-81.8810,94.84,1111122 
COMPS,ioos:station:USF.COMPS:BGC:1,2014-08-02T02:48:00Z,26.4040,-81.8810,95.19,1111122 
COMPS,ioos:station:USF.COMPS:BGC:1,2014-08-02T02:54:00Z,26.4040,-81.8810,95.87,1111122 
COMPS,ioos:station:USF.COMPS:BGC:1,2014-08-02T03:00:00Z,26.4040,-81.8810,96.21,1111122 
COMPS,ioos:station:USF.COMPS:BGC:1,2014-08-02T03:06:00Z,26.4040,-81.8810,95.92,1111122 